| time (UTC) | temp C | wind direction | speed KPH | gust KPH | rain 1hr cm | rain 24hr cm | rain mn cm | humidity % | barometer mb |
| 20260506100406 | 16 | 203 | 6.4 | 19.3 | 0.00 | 8.26 | 6.10 | 82 | 1011.3 |
| 20260506094906 | 16 | 217 | 9.7 | 14.5 | 0.00 | 8.41 | 6.10 | 81 | 1011.5 |
| 20260506093406 | 16 | 201 | 14.5 | 24.1 | 0.00 | 8.51 | 6.10 | 81 | 1011.4 |
| 20260506091406 | 16 | 216 | 4.8 | 14.5 | 0.00 | 8.61 | 6.10 | 62 | 1011.2 |
| 20260506084906 | 15 | 223 | 6.4 | 11.3 | 0.03 | 9.17 | 6.10 | 37 | 1011.4 |
| 20260506084406 | 15 | 200 | 8.0 | 12.9 | 0.03 | 9.22 | 6.10 | 34 | 1011.4 |
| 20260506083906 | 15 | 177 | 6.4 | 12.9 | 0.03 | 9.30 | 6.10 | 34 | 1011.3 |
| 20260506081906 | 15 | 211 | 8.0 | 14.5 | 0.03 | 9.35 | 6.10 | 36 | 1011.5 |
| 20260506080906 | 15 | 231 | 8.0 | 16.1 | 0.03 | 9.37 | 6.10 | 37 | 1011.5 |
| 20260506080406 | 14 | 192 | 9.7 | 24.1 | 0.03 | 9.50 | 6.10 | 37 | 1011.4 |
| 20260506073406 | 14 | 56 | 0.0 | 4.8 | 0.51 | 10.03 | 6.07 | 38 | 1011.2 |
| 20260506071406 | 13 | 46 | 0.0 | 3.2 | 0.64 | 10.03 | 6.07 | 39 | 1011.3 |
| 20260506070906 | 13 | 121 | 3.2 | 4.8 | 0.64 | 10.03 | 6.07 | 39 | 1011.2 |
| 20260506070406 | 13 | 156 | 1.6 | 4.8 | 0.69 | 10.06 | 6.07 | 39 | 1011.1 |
| 20260506061906 | 13 | 259 | 8.0 | 12.9 | 0.51 | 9.63 | 5.49 | 40 | 1011.0 |
| 20260506061406 | 13 | 230 | 3.2 | 8.0 | 0.46 | 9.60 | 5.44 | 40 | 1011.0 |
| 20260506060406 | 13 | 207 | 3.2 | 9.7 | 0.43 | 9.58 | 5.41 | 40 | 1011.0 |
| 20260506043906 | 13 | 57 | 8.0 | 12.9 | 0.05 | 10.49 | 4.93 | 43 | 1010.9 |
| 20260506043412 | 13 | 74 | 4.8 | 16.1 | 0.03 | 10.49 | 4.90 | 43 | 1011.0 |
| 20260506041406 | 13 | 86 | 9.7 | 11.3 | 0.30 | 10.54 | 4.90 | 44 | 1011.4 |
| 20260506040406 | 13 | 77 | 8.0 | 12.9 | 0.43 | 10.54 | 4.90 | 44 | 1011.7 |
| 20260506034906 | 13 | 77 | 0.0 | 1.6 | 0.76 | 10.54 | 4.90 | 44 | 1012.0 |
| 20260506034406 | 13 | 77 | 1.6 | 1.6 | 0.79 | 10.54 | 4.90 | 44 | 1011.9 |
| 20260506031906 | 13 | 125 | 11.3 | 19.3 | 0.61 | 10.34 | 4.67 | 44 | 1011.8 |
| 20260506030906 | 13 | 38 | 3.2 | 8.0 | 0.51 | 10.21 | 4.55 | 44 | 1012.0 |
| 20260506024406 | 13 | 243 | 0.0 | 0.0 | 0.53 | 9.78 | 4.09 | 45 | 1011.6 |
| 20260506023905 | 13 | 243 | 0.0 | 0.0 | 0.64 | 9.75 | 4.06 | 45 | 1011.7 |
| 20260506023406 | 13 | 243 | 0.0 | 4.8 | 0.69 | 9.75 | 4.06 | 45 | 1011.6 |
| 20260506021906 | 13 | 20 | 0.0 | 4.8 | 0.84 | 9.80 | 4.06 | 45 | 1011.6 |
| 20260506021406 | 13 | 23 | 4.8 | 11.3 | 0.84 | 9.83 | 4.06 | 45 | 1011.5 |
| 20260506020406 | 13 | 28 | 9.7 | 19.3 | 0.81 | 9.83 | 4.01 | 45 | 1011.5 |
| 20260506013407 | 13 | 56 | 4.8 | 9.7 | 0.30 | 9.27 | 3.38 | 46 | 1011.9 |
| 20260506011905 | 13 | 57 | 4.8 | 8.0 | 0.25 | 9.14 | 3.23 | 46 | 1012.0 |
| 20260506011406 | 13 | 57 | 4.8 | 9.7 | 0.33 | 9.14 | 3.23 | 46 | 1012.1 |
| 20260506010406 | 13 | 58 | 6.4 | 12.9 | 1.40 | 9.12 | 3.20 | 47 | 1012.2 |
| 20260506004905 | 13 | 53 | 8.0 | 11.3 | 2.39 | 9.09 | 3.17 | 46 | 1012.4 |
| 20260506004405 | 13 | 53 | 1.6 | 3.2 | 2.69 | 9.07 | 3.15 | 47 | 1012.8 |
| 20260506003905 | 13 | 53 | 1.6 | 4.8 | 2.77 | 9.04 | 3.12 | 47 | 1012.8 |
| 20260506003406 | 13 | 53 | 3.2 | 16.1 | 2.77 | 8.99 | 3.07 | 48 | 1012.7 |
| 20260506001906 | 14 | 25 | 3.2 | 19.3 | 2.92 | 8.89 | 2.97 | 51 | 1012.6 |
| 20260506001406 | 14 | 52 | 12.9 | 19.3 | 2.87 | 8.81 | 2.90 | 51 | 1012.6 |
| 20260506000905 | 15 | 76 | 3.2 | 4.8 | 2.46 | 8.38 | 2.46 | 52 | 1013.2 |
| 20260505234409 | 15 | 117 | 3.2 | 8.0 | 0.56 | 6.48 | 0.56 | 73 | 1012.9 |
| 20260505233905 | 15 | 221 | 3.2 | 8.0 | 0.36 | 6.27 | 0.36 | 74 | 1012.9 |
| 20260505233405 | 15 | 35 | 3.2 | 16.1 | 0.33 | 6.25 | 0.33 | 74 | 1012.9 |
| 20260505231906 | 15 | 60 | 8.0 | 16.1 | 0.05 | 5.97 | 0.05 | 75 | 1013.0 |
| 20260505230905 | 15 | 65 | 8.0 | 20.9 | 0.00 | 5.92 | 0.00 | 74 | 1013.0 |
| 20260505230405 | 15 | 113 | 8.0 | 12.9 | 0.00 | 5.92 | 0.00 | 74 | 1013.2 |
| 20260505224905 | 15 | 103 | 4.8 | 8.0 | 0.00 | 5.92 | 0.00 | 75 | 1013.3 |
| 20260505223906 | 15 | 64 | 9.7 | 14.5 | 0.00 | 5.92 | 0.00 | 75 | 1013.3 |
| 20260505221406 | 15 | 144 | 9.7 | 19.3 | 0.00 | 5.92 | 0.00 | 73 | 1013.3 |
| 20260505213405 | 15 | 71 | 12.9 | 22.5 | 0.00 | 5.92 | 5.92 | 52 | 1013.6 |
| 20260505211406 | 15 | 110 | 4.8 | 16.1 | 0.69 | 5.92 | 5.92 | 52 | 1013.8 |
| 20260505210408 | 16 | 233 | 4.8 | 12.9 | 0.89 | 5.92 | 5.92 | 52 | 1013.9 |
| 20260505204405 | 16 | 185 | 8.0 | 14.5 | 0.97 | 5.92 | 5.92 | 60 | 1013.8 |
| 20260505201407 | 16 | 138 | 1.6 | 3.2 | 0.28 | 5.23 | 5.23 | 71 | 1013.5 |
| 20260505194905 | 16 | 99 | 0.0 | 3.2 | 0.10 | 4.98 | 4.98 | 76 | 1013.6 |
| 20260505194411 | 16 | 98 | 1.6 | 3.2 | 0.10 | 4.95 | 4.95 | 77 | 1013.7 |
| 20260505193907 | 16 | 101 | 1.6 | 3.2 | 0.10 | 4.95 | 4.95 | 78 | 1013.6 |
| 20260505191906 | 16 | 159 | 3.2 | 8.0 | 0.10 | 4.95 | 4.95 | 80 | 1013.5 |
| 20260505191407 | 16 | 137 | 1.6 | 3.2 | 0.10 | 4.95 | 4.95 | 81 | 1013.3 |
| 20260505184407 | 17 | 180 | 3.2 | 4.8 | 0.00 | 4.85 | 4.85 | 84 | 1013.2 |
| 20260505183907 | 17 | 215 | 1.6 | 4.8 | 0.00 | 4.85 | 4.85 | 84 | 1013.2 |
| 20260505183408 | 17 | 192 | 4.8 | 11.3 | 0.00 | 4.85 | 4.85 | 85 | 1013.1 |
| 20260505181907 | 17 | 218 | 1.6 | 4.8 | 0.00 | 4.85 | 4.85 | 85 | 1013.1 |
| 20260505181407 | 17 | 185 | 4.8 | 9.7 | 0.00 | 4.85 | 4.85 | 85 | 1013.0 |
| 20260505180909 | 17 | 134 | 4.8 | 11.3 | 0.00 | 4.85 | 4.85 | 85 | 1012.9 |
| 20260505174907 | 17 | 133 | 9.7 | 14.5 | 0.00 | 4.85 | 4.85 | 84 | 1013.0 |
| 20260505173407 | 17 | 201 | 6.4 | 24.1 | 0.00 | 4.85 | 4.85 | 85 | 1013.0 |
| 20260505171407 | 18 | 159 | 9.7 | 16.1 | 0.00 | 4.85 | 4.85 | 84 | 1012.9 |
| 20260505170907 | 18 | 143 | 11.3 | 16.1 | 0.00 | 4.85 | 4.85 | 84 | 1012.9 |
| 20260505164406 | 20 | 205 | 11.3 | 19.3 | 0.00 | 4.85 | 4.85 | 77 | 1012.7 |
| 20260505163907 | 20 | 243 | 11.3 | 14.5 | 0.00 | 4.85 | 4.85 | 77 | 1012.8 |
| 20260505163409 | 20 | 204 | 11.3 | 19.3 | 0.00 | 4.85 | 4.85 | 78 | 1012.8 |
| 20260505151906 | 20 | 215 | 4.8 | 9.7 | 0.00 | 4.85 | 4.85 | 81 | 1012.7 |
| 20260505150406 | 19 | 239 | 3.2 | 4.8 | 0.00 | 4.85 | 4.85 | 85 | 1012.8 |
| 20260505140407 | 17 | 257 | 1.6 | 8.0 | 0.00 | 4.85 | 4.85 | 60 | 1013.6 |
| 20260505124907 | 16 | 49 | 0.0 | 4.8 | 0.05 | 4.85 | 4.85 | 64 | 1013.9 |
| 20260505121906 | 15 | 49 | 3.2 | 4.8 | 0.23 | 4.85 | 4.85 | 66 | 1014.1 |
| 20260505121407 | 15 | 49 | 0.0 | 4.8 | 0.28 | 4.85 | 4.85 | 66 | 1014.1 |
| 20260505120908 | 15 | 49 | 3.2 | 4.8 | 0.30 | 4.83 | 4.83 | 66 | 1014.1 |
| 20260505120407 | 15 | 49 | 4.8 | 4.8 | 0.33 | 4.83 | 4.83 | 66 | 1014.3 |
| 20260505114906 | 15 | 49 | 1.6 | 4.8 | 0.43 | 4.80 | 4.80 | 66 | 1014.3 |
| 20260505114409 | 15 | 49 | 0.0 | 8.0 | 0.48 | 4.78 | 4.78 | 66 | 1014.3 |
| 20260505113406 | 14 | 49 | 3.2 | 11.3 | 0.43 | 4.65 | 4.65 | 67 | 1014.1 |
| 20260505111906 | 14 | 49 | 6.4 | 9.7 | 0.74 | 4.60 | 4.60 | 67 | 1014.3 |
| 20260505111406 | 14 | 69 | 8.0 | 9.7 | 0.71 | 4.57 | 4.57 | 67 | 1014.2 |
| 20260505110907 | 13 | 358 | 4.8 | 11.3 | 0.71 | 4.52 | 4.52 | 67 | 1014.2 |